• MPC Preparation (Info)

  • MPEC 2019-T65 : 2019 TS

    The following Minor Planet Electronic Circular may be linked-to from your own Web pages, but must not otherwise be redistributed electronically.

    A form allowing access to any MPEC is at the bottom of this page.


    Read MPEC 2019-T64 Read MPEC 2019-T66


    M.P.E.C. 2019-T65                               Issued 2019 October 3, 23:27 UT
    
         The Minor Planet Electronic Circulars contain information on unusual
             minor planets and routine data on comets.  They are published
        on behalf of Division F of the International Astronomical Union by the
              Minor Planet Center, Smithsonian Astrophysical Observatory,
                              Cambridge, MA 02138, U.S.A.
    
                 Prepared using the Tamkin Foundation Computer Network
    
                                  MPC@CFA.HARVARD.EDU
                URL https://www.minorplanetcenter.net/    ISSN 1523-6714
    
                                     2019 TS                                 
    
    
    Observations:
         K19T00S  C2019 09 06.46071723 43 23.133-03 26 35.18         22.3 GVET065F51
         K19T00S  C2019 09 06.47264223 43 23.641-03 26 34.42         21.7 GVET065F51
         K19T00S  C2019 09 06.48455323 43 24.201-03 26 34.31         23.1 GVET065F51
         K19T00S  C2019 09 06.49646923 43 24.725-03 26 33.31         22.5 GVET065F51
         K19T00S* C2019 10 03.31121 01 58 23.24 -01 39 56.4          19.2 GVET065703
         K19T00S  C2019 10 03.31645 01 58 29.53 -01 39 49.0          19.2 GVET065703
         K19T00S  C2019 10 03.32170 01 58 35.80 -01 39 41.0          18.9 GVET065703
         K19T00S  C2019 10 03.32694 01 58 42.12 -01 39 33.7          19.0 GVET065703
         K19T00S  C2019 10 03.41619 02 00 30.83 -01 37 20.0          19.9 GVET065I52
         K19T00S  C2019 10 03.41637 02 00 31.06 -01 37 19.6          20.3 GVET065I52
         K19T00S  C2019 10 03.41655 02 00 31.29 -01 37 19.6          19.3 GVET065I52
         K19T00S KC2019 10 03.67889702 06 26.20 -01 24 39.4          19.0 GVET065474
         K19T00S KC2019 10 03.68013702 06 27.82 -01 24 37.4          19.0 GVET065474
         K19T00S KC2019 10 03.68075802 06 28.65 -01 24 36.3          19.0 GVET065474
         K19T00S KC2019 10 03.68200102 06 30.32 -01 24 34.5          19.0 GVET065474
         K19T00S KC2019 10 03.91198 02 12 17.52 -01 24 44.2          18.5 GVET065104
         K19T00S KC2019 10 03.91622 02 12 23.49 -01 24 37.4          18.9 GVET065104
         K19T00S KC2019 10 03.92046 02 12 29.44 -01 24 30.6          18.5 GVET065104
         K19T00S KC2019 10 03.93869 02 12 57.08 -01 24 00.1          18.9 VqET065I93
         K19T00S KC2019 10 03.94196 02 13 01.71 -01 23 54.3          18.8 VqET065I93
         K19T00S KC2019 10 03.94532 02 13 06.43 -01 23 48.4          18.8 VqET065I93
    
    Observer details:
    104 San Marcello Pistoiese.  Observers P. Bacci, M. Maestripieri.  Measurers P. 
       Bacci, L. Tesi, G. Fagioli.  0.60-m reflector + CCD.
    474 Mount John Observatory, Lake Tekapo.  Observers A. C. Gilmore, P. M. 
       Kilmartin.  Measurer P. M. Kilmartin.  1.0-m f/7.7 reflector + CCD.
    703 Catalina Sky Survey.  Observer G. J. Leonard.  Measurers B. M. Africano, E. 
       J. Christensen, G. A. Farneth, D. C. Fuls, A. R. Gibbs, A. D. Grauer, H. 
       Groeller, R. A. Kowalski, S. M. Larson, G. J. Leonard, T. A. Pruyne, D. 
       Rankin, R. L. Seaman, F. C. Shelly.  0.68-m Schmidt + 10K CCD.
    F51 Pan-STARRS 1, Haleakala.  Observers J. Bulger, K. Chambers, T. Lowe, E. 
       Magnier, A. Schultz, M. Willman.  Measurers S. Chastel, M. Huber, Y. 
       Ramanjooloo, R. Wainscoat, R. Weryk.  1.8-m Ritchey-Chretien + CCD.
    I52 Steward Observatory, Mt. Lemmon Station.  Observer T. A. Pruyne.  Measurers 
       B. M. Africano, E. J. Christensen, G. A. Farneth, D. C. Fuls, A. R. Gibbs, 
       A. D. Grauer, H. Groeller, R. A. Kowalski, S. M. Larson, G. J. Leonard, T. 
       A. Pruyne, D. Rankin, R. L. Seaman, F. C. Shelly.  1.0-m reflector + CCD.
    I93 St Pardon de Conques.  Observer F. Losse.  0.40-m f/3.7 reflector + CCD.
    
    Orbital elements:
    2019 TS                                                  Earth MOID = 0.0070 AU
    Epoch 2019 Apr. 27.0 TT = JDT 2458600.5                 Bell
    M 254.35471              (2000.0)            P               Q
    n   0.52941139     Peri.  275.89507     +0.52654741     -0.85012639
    a   1.5133540      Node   142.33065     +0.78366228     +0.48274201
    e   0.3814418      Incl.    0.53809     +0.32957738     +0.21034558
    P   1.86           H   25.7           G   0.15           U   6
    Residuals in seconds of arc
    190906 F51  0.0   0.2-    191003 703  0.3-  0.2-    191003 474  0.0   0.4-
    190906 F51  0.3-  0.1+    191003 I52  0.5-  0.0     191003 104  0.0   0.3+
    190906 F51  0.2+  0.2-    191003 I52  0.4-  0.1+    191003 104  0.2+  0.1-
    190906 F51  0.1+  0.3+    191003 I52  0.3-  0.2-    191003 104  0.1+  0.5-
    191003 703  1.1+  0.1+    191003 474  0.1+  0.1-    191003 I93  0.2+  0.2+
    191003 703  0.7+  0.2-    191003 474  0.3-  0.2-    191003 I93  0.2+  0.4+
    191003 703  0.3-  0.2+    191003 474  0.2-  0.1-    191003 I93  0.3-  0.6+
    
    Ephemeris:
    2019 TS                  a,e,i = 1.51, 0.38, 1                   q = 0.9361
    Date    TT    R. A. (2000) Decl.     Delta      r    Elong.  Phase     V
    2019 09 03    23 39 51.6 -03 28 56   0.1806  1.1849   165.9    12.0    23.1
    ...
    2019 09 18    00 01 55.0 -03 18 56   0.09916 1.1038   174.4     5.1    21.3
    ...
    2019 09 26    00 32 39.7 -03 01 03   0.06159 1.0640   172.8     6.8    20.3
    ...
    2019 10 02    01 33 26.3 -02 05 00   0.03681 1.0365   163.3    16.1    19.5
    2019 10 03    01 51 46.8 -01 44 50   0.03323 1.0321   159.8    19.6    19.4
    2019 10 04    02 14 17.4 -01 18 47   0.02992 1.0278   155.2    24.1    19.3
    ...
    2019 10 10    06 13 35.0 +03 22 22   0.02246 1.0036   101.8    77.0    20.2
    ...
    2019 10 18    09 22 21.2 +04 51 49   0.04701 0.9761    63.1   114.5    23.5
    ...
    2019 11 02    10 35 14.1 +04 05 12   0.1102  0.9426    60.2   114.0    25.2
    
    A. U. Tomatic                (C) Copyright 2019 MPC           M.P.E.C. 2019-T65
    


    Read MPEC 2019-T64 Read MPEC 2019-T66


    MPEC number:

    Enter an MPEC number in one of the following forms:

    • 1997-B01 (the full form)
    • J97B01 (the packed version of the full form)
    • B01 (the abbreviated form)